Palacios, TX

2:15 AM CST on February 21, 2018 (GMT -0600)
Palacios Municipal

Weather History for KPSX - September, 2011

Change the Weather History Date:

Sunday, September 11, 2011

  Actual Average Record
Temperature  
Mean Temperature 80 °F -  
Max Temperature 90 °F 87 °F 96 °F (1944)
Min Temperature 71 °F 72 °F 61 °F (2017)
Cooling Degree Days 15    
Growing Degree Days 30 (Base 50)    
Moisture  
Dew Point 72 °F    
Average Humidity 73    
Maximum Humidity 97    
Minimum Humidity 53    
Precipitation  
Precipitation 0.00 in - - ()
Sea Level Pressure  
Sea Level Pressure 30.05 in    
Wind  
Wind Speed 7 mph (South)    
Max Wind Speed 17 mph    
Max Gust Speed 21 mph    
Visibility 10 miles    
Events      
Averages and records for this station are not official NWS values.
T = Trace of Precipitation, MM = Missing Value Source: NWS Daily Summary

Daily Weather History Graph

Daily Weather History Graph

Search for Another Location

Airport or City:

Trip Planner

Search our weather history database for the weather conditions in past years. The results will help you decide how hot, cold, wet, or windy it might be!

Date:

Astronomy

Sep. 11, 2011 Rise Set
Actual Time 7:07 AM CDT 7:35 PM CDT
Civil Twilight 6:44 AM CDT 7:58 PM CDT
Nautical Twilight 6:16 AM CDT 8:26 PM CDT
Astronomical Twilight 5:48 AM CDT 8:54 PM CDT
Moon 7:01 PM CDT (9/11) 6:26 AM CDT (9/11)
Length of Visible Light 13h 14m
Length of Day
12h 27m
Full, 100% of the Moon is Illuminated
Sep 11
Full
Sep 12
Full
Sep 20
Last Quarter
Sep 27
New
Oct 3
First Quarter

Hourly Weather History & Observations

Time (CDT) Temp. Heat Index Dew Point Humidity Pressure Visibility Wind Dir Wind Speed Gust Speed Precip Events Conditions
12:53 AM 80.1 °F 83.8 °F 72.0 °F 76% 30.03 in 10.0 mi South 8.1 mph - N/A   Clear
1:53 AM 80.1 °F 84.2 °F 73.0 °F 79% 30.02 in 10.0 mi South 5.8 mph - N/A   Clear
2:53 AM 79.0 °F - 73.0 °F 82% 30.02 in 10.0 mi South 5.8 mph - N/A   Clear
3:53 AM 79.0 °F - 73.9 °F 84% 30.02 in 10.0 mi South 3.5 mph - N/A   Clear
4:53 AM 71.1 °F - 69.1 °F 93% 30.02 in 10.0 mi North 3.5 mph - N/A   Clear
5:53 AM 71.1 °F - 69.1 °F 93% 30.03 in 10.0 mi NNE 4.6 mph - N/A   Clear
6:53 AM 71.6 °F - 69.8 °F 94% 30.05 in 10.0 mi Calm Calm - N/A   Clear
7:53 AM 72.0 °F - 71.1 °F 97% 30.08 in 9.0 mi Calm Calm - N/A   Clear
8:53 AM 80.1 °F 84.5 °F 73.9 °F 81% 30.09 in 10.0 mi Calm Calm - N/A   Clear
9:53 AM 84.0 °F 89.6 °F 72.0 °F 67% 30.11 in 10.0 mi Calm Calm - N/A   Clear
10:53 AM 86.0 °F 91.5 °F 71.1 °F 61% 30.11 in 10.0 mi South 9.2 mph - N/A   Clear
11:53 AM 86.0 °F 91.5 °F 71.1 °F 61% 30.12 in 10.0 mi South 9.2 mph - N/A   Clear
12:53 PM 87.1 °F 94.5 °F 73.0 °F 63% 30.11 in 10.0 mi SSW 10.4 mph - N/A   Clear
2:53 PM 89.1 °F 95.0 °F 71.1 °F 55% 30.06 in 10.0 mi South 15.0 mph - N/A   Clear
3:53 PM 88.0 °F 93.8 °F 71.1 °F 57% 30.04 in 10.0 mi South 16.1 mph - N/A   Clear
4:53 PM 88.0 °F 92.1 °F 69.1 °F 53% 30.03 in 10.0 mi South 17.3 mph - N/A   Clear
5:53 PM 87.1 °F 93.6 °F 72.0 °F 61% 30.02 in 10.0 mi South 15.0 mph 20.7 mph N/A   Clear
6:53 PM 84.9 °F 90.7 °F 72.0 °F 65% 30.02 in 10.0 mi South 12.7 mph - N/A   Clear
7:53 PM 82.4 °F 88.2 °F 73.4 °F 74% 30.03 in 10.0 mi South 10.4 mph - N/A   Clear
8:53 PM 82.9 °F 88.8 °F 73.0 °F 72% 30.04 in 10.0 mi South 10.4 mph - N/A   Clear
9:53 PM 82.9 °F 89.4 °F 73.9 °F 74% 30.06 in 10.0 mi South 10.4 mph - N/A   Clear
10:53 PM 82.0 °F 87.4 °F 73.0 °F 74% 30.07 in 10.0 mi South 11.5 mph - N/A   Clear
11:53 PM 82.0 °F 87.4 °F 73.0 °F 74% 30.07 in 10.0 mi South 9.2 mph - N/A   Clear